RJFK

Kagoshima

Airport
ICAO code
RJFK
IATA Code
KOJ
Summary
ICAO Region
APAC
ICAO Territory
Location

Kirishima, Kagoshima Prefecture

Serving
Kagoshima
Elevation
892 ft
Coordinates
31° 48' 12" N , 130° 43' 10" E
KCC
Metar
Observation
RJFK 090500Z 10009KT 9999 FEW040 BKN100 BKN130 11/02 Q1023
Station
Kagoshima Airport
Date/Time
2023-02-09 05:00:00
Wind direction
100°
Wind speed
09 kts
Lowest cloud amount
few clouds
Temperature
11°C
Dew point
2°C
Humidity
53%
QNH
1023 hPa
Weather condition
n/a

Kagoshima Airport is located in Kirishima, Kagoshima Prefecture, Japan, 29.6 km northeast of Kagoshima City.

Climatology

Humid Sub-tropical climate (Köppen climate classification Cwa) - Hot humid summers and cooler winter. Significant precipitation in all seasons but drier in the winter.

Runways

Designator Length Width Surface Rops
16/34 2999 46 ASP Yes/Yes

Airport map

Aerial View

SKYbrary Partners:

Safety knowledge contributed by: